Year,Month,Day,Hour,Minute,Value (Times are PST for temperature in C)
2011,08,01,00,00,12.80
2011,08,01,00,01,12.80
2011,08,01,00,02,12.80
2011,08,01,00,03,12.80
2011,08,01,00,04,12.80
2011,08,01,00,05,12.80
2011,08,01,00,06,12.80
2011,08,01,00,07,12.80
2011,08,01,00,08,12.80
2011,08,01,00,09,12.80
2011,08,01,00,10,12.80
2011,08,01,00,11,12.70
2011,08,01,00,12,12.80
2011,08,01,00,13,12.80
2011,08,01,00,14,12.80
2011,08,01,00,15,12.80
2011,08,01,00,16,12.80
2011,08,01,00,17,12.70
2011,08,01,00,18,12.70
2011,08,01,00,19,12.70
2011,08,01,00,20,12.70
2011,08,01,00,21,12.70
2011,08,01,00,22,12.60
2011,08,01,00,23,12.60
2011,08,01,00,24,12.60
2011,08,01,00,25,12.60
2011,08,01,00,26,12.60
2011,08,01,00,27,12.60
2011,08,01,00,28,12.60
2011,08,01,00,29,12.60
2011,08,01,00,30,12.50
2011,08,01,00,31,12.40
2011,08,01,00,32,12.40
2011,08,01,00,33,12.30
2011,08,01,00,34,12.30
2011,08,01,00,35,12.30
2011,08,01,00,36,12.20
2011,08,01,00,37,12.20
2011,08,01,00,38,12.20
2011,08,01,00,39,12.20
2011,08,01,00,40,12.20
2011,08,01,00,41,12.20
2011,08,01,00,42,12.20
2011,08,01,00,43,12.20
2011,08,01,00,44,12.20
2011,08,01,00,45,12.20
2011,08,01,00,46,12.20
2011,08,01,00,47,12.20
2011,08,01,00,48,12.20
2011,08,01,00,49,12.20
2011,08,01,00,50,12.20
2011,08,01,00,51,12.20
2011,08,01,00,52,12.20
2011,08,01,00,53,12.20
2011,08,01,00,54,12.20
2011,08,01,00,55,12.10
2011,08,01,00,56,12.10
2011,08,01,00,57,12.10
2011,08,01,00,58,12.10
2011,08,01,00,59,12.10
2011,08,01,01,00,12.10
2011,08,01,01,01,12.00
2011,08,01,01,02,12.00
2011,08,01,01,03,12.00
2011,08,01,01,04,12.00
2011,08,01,01,05,12.00
2011,08,01,01,06,12.00
2011,08,01,01,07,11.90
2011,08,01,01,08,11.90
2011,08,01,01,09,11.90
2011,08,01,01,10,11.90
2011,08,01,01,11,11.90
2011,08,01,01,12,11.90
2011,08,01,01,13,11.90
2011,08,01,01,14,11.90
2011,08,01,01,15,11.80
2011,08,01,01,16,11.80
2011,08,01,01,17,11.80
2011,08,01,01,18,11.80
2011,08,01,01,19,11.80
2011,08,01,01,20,11.80
2011,08,01,01,21,11.80
2011,08,01,01,22,11.80
2011,08,01,01,23,11.80
2011,08,01,01,24,11.80
2011,08,01,01,25,11.80
2011,08,01,01,26,11.80
2011,08,01,01,27,11.80
2011,08,01,01,28,11.80
2011,08,01,01,29,11.80
2011,08,01,01,30,11.70
2011,08,01,01,31,11.70
2011,08,01,01,32,11.70
2011,08,01,01,33,11.70
2011,08,01,01,34,11.70
2011,08,01,01,35,11.70
2011,08,01,01,36,11.70
2011,08,01,01,37,11.70
2011,08,01,01,38,11.70
2011,08,01,01,39,11.70
2011,08,01,01,40,11.70
2011,08,01,01,41,11.70
2011,08,01,01,42,11.70
2011,08,01,01,43,11.70
2011,08,01,01,44,11.70
2011,08,01,01,45,11.60
2011,08,01,01,46,11.60
2011,08,01,01,47,11.60
2011,08,01,01,48,11.60
2011,08,01,01,49,11.50
2011,08,01,01,50,11.50
2011,08,01,01,51,11.50
2011,08,01,01,52,11.40
2011,08,01,01,53,11.40
2011,08,01,01,54,11.40
2011,08,01,01,55,11.40
2011,08,01,01,56,11.40
2011,08,01,01,57,11.30
2011,08,01,01,58,11.30
2011,08,01,01,59,11.30
2011,08,01,02,00,11.30
2011,08,01,02,01,11.30
2011,08,01,02,02,11.30
2011,08,01,02,03,11.20
2011,08,01,02,04,11.20
2011,08,01,02,05,11.20
2011,08,01,02,06,11.20
2011,08,01,02,07,11.20
2011,08,01,02,08,11.20
2011,08,01,02,09,11.10
2011,08,01,02,10,11.10
2011,08,01,02,11,11.10
2011,08,01,02,12,11.10
2011,08,01,02,13,11.10
2011,08,01,02,14,11.20
2011,08,01,02,15,11.20
2011,08,01,02,16,11.20
2011,08,01,02,17,11.20
2011,08,01,02,18,11.20
2011,08,01,02,19,11.20
2011,08,01,02,20,11.20
2011,08,01,02,21,11.10
2011,08,01,02,22,11.10
2011,08,01,02,23,11.10
2011,08,01,02,24,11.10
2011,08,01,02,25,11.10
2011,08,01,02,26,11.10
2011,08,01,02,27,11.10
2011,08,01,02,28,11.10
2011,08,01,02,29,11.10
2011,08,01,02,30,11.10
2011,08,01,02,31,11.10
2011,08,01,02,32,11.10
2011,08,01,02,33,11.10
2011,08,01,02,34,11.10
2011,08,01,02,35,11.10
2011,08,01,02,36,11.10
2011,08,01,02,37,11.10
2011,08,01,02,38,11.10
2011,08,01,02,39,11.10
2011,08,01,02,40,11.10
2011,08,01,02,41,11.00
2011,08,01,02,42,11.00
2011,08,01,02,43,11.00
2011,08,01,02,44,10.90
2011,08,01,02,45,10.90
2011,08,01,02,46,10.90
2011,08,01,02,47,10.80
2011,08,01,02,48,10.80
2011,08,01,02,49,10.80
2011,08,01,02,50,10.80
2011,08,01,02,51,10.80
2011,08,01,02,52,10.80
2011,08,01,02,53,10.80
2011,08,01,02,54,10.80
2011,08,01,02,55,10.70
2011,08,01,02,56,10.70
2011,08,01,02,57,10.70
2011,08,01,02,58,10.70
2011,08,01,02,59,10.70
2011,08,01,03,00,10.70
2011,08,01,03,01,10.70
2011,08,01,03,02,10.70
2011,08,01,03,03,10.70
2011,08,01,03,04,10.70
2011,08,01,03,05,10.70
2011,08,01,03,06,10.70
2011,08,01,03,07,10.70
2011,08,01,03,08,10.70
2011,08,01,03,09,10.70
2011,08,01,03,10,10.70
2011,08,01,03,11,10.70
2011,08,01,03,12,10.70
2011,08,01,03,13,10.70
2011,08,01,03,14,10.70
2011,08,01,03,15,10.70
2011,08,01,03,16,10.70
2011,08,01,03,17,10.70
2011,08,01,03,18,10.70
2011,08,01,03,19,10.70
2011,08,01,03,20,10.70
2011,08,01,03,21,10.70
2011,08,01,03,22,10.70
2011,08,01,03,23,10.70
2011,08,01,03,24,10.70
2011,08,01,03,25,10.70
2011,08,01,03,26,10.60
2011,08,01,03,27,10.60
2011,08,01,03,28,10.60
2011,08,01,03,29,10.50
2011,08,01,03,30,10.50
2011,08,01,03,31,10.40
2011,08,01,03,32,10.40
2011,08,01,03,33,10.30
2011,08,01,03,34,10.30
2011,08,01,03,35,10.30
2011,08,01,03,36,10.20
2011,08,01,03,37,10.20
2011,08,01,03,38,10.20
2011,08,01,03,39,10.20
2011,08,01,03,40,10.20
2011,08,01,03,41,10.10
2011,08,01,03,42,10.10
2011,08,01,03,43,10.10
2011,08,01,03,44,10.10
2011,08,01,03,45,10.10
2011,08,01,03,46,10.10
2011,08,01,03,47,10.10
2011,08,01,03,48,10.10
2011,08,01,03,49,10.20
2011,08,01,03,50,10.10
2011,08,01,03,51,10.20
2011,08,01,03,52,10.20
2011,08,01,03,53,10.20
2011,08,01,03,54,10.20
2011,08,01,03,55,10.20
2011,08,01,03,56,10.20
2011,08,01,03,57,10.20
2011,08,01,03,58,10.20
2011,08,01,03,59,10.20
2011,08,01,04,00,10.20
2011,08,01,04,01,10.20
2011,08,01,04,02,10.20
2011,08,01,04,03,10.20
2011,08,01,04,04,10.20
2011,08,01,04,05,10.10
2011,08,01,04,06,10.10
2011,08,01,04,07,10.10
2011,08,01,04,08,10.10
2011,08,01,04,09,10.00
2011,08,01,04,10,10.00
2011,08,01,04,11,9.90
2011,08,01,04,12,9.90
2011,08,01,04,13,9.90
2011,08,01,04,14,9.90
2011,08,01,04,15,9.90
2011,08,01,04,16,9.80
2011,08,01,04,17,9.80
2011,08,01,04,18,9.80
2011,08,01,04,19,9.80
2011,08,01,04,20,9.80
2011,08,01,04,21,9.80
2011,08,01,04,22,9.80
2011,08,01,04,23,9.80
2011,08,01,04,24,9.90
2011,08,01,04,25,9.90
2011,08,01,04,26,9.80
2011,08,01,04,27,9.80
2011,08,01,04,28,9.80
2011,08,01,04,29,9.80
2011,08,01,04,30,9.80
2011,08,01,04,31,9.80
2011,08,01,04,32,9.80
2011,08,01,04,33,9.80
2011,08,01,04,34,9.90
2011,08,01,04,35,9.90
2011,08,01,04,36,9.90
2011,08,01,04,37,9.90
2011,08,01,04,38,9.90
2011,08,01,04,39,9.90
2011,08,01,04,40,9.90
2011,08,01,04,41,9.80
2011,08,01,04,42,9.80
2011,08,01,04,43,9.80
2011,08,01,04,44,9.80
2011,08,01,04,45,9.80
2011,08,01,04,46,9.70
2011,08,01,04,47,9.70
2011,08,01,04,48,9.70
2011,08,01,04,49,9.70
2011,08,01,04,50,9.60
2011,08,01,04,51,9.60
2011,08,01,04,52,9.60
2011,08,01,04,53,9.60
2011,08,01,04,54,9.60
2011,08,01,04,55,9.60
2011,08,01,04,56,9.60
2011,08,01,04,57,9.60
2011,08,01,04,58,9.60
2011,08,01,04,59,9.60
2011,08,01,05,00,9.60
2011,08,01,05,01,9.60
2011,08,01,05,02,9.60
2011,08,01,05,03,9.60
2011,08,01,05,04,9.60
2011,08,01,05,05,9.60
2011,08,01,05,06,9.60
2011,08,01,05,07,9.60
2011,08,01,05,08,9.60
2011,08,01,05,09,9.60
2011,08,01,05,10,9.60
2011,08,01,05,11,9.60
2011,08,01,05,12,9.60
2011,08,01,05,13,9.60
2011,08,01,05,14,9.60
2011,08,01,05,15,9.60
2011,08,01,05,16,9.60
2011,08,01,05,17,9.60
2011,08,01,05,18,9.60
2011,08,01,05,19,9.60
2011,08,01,05,20,9.60
2011,08,01,05,21,9.60
2011,08,01,05,22,9.60
2011,08,01,05,23,9.60
2011,08,01,05,24,9.60
2011,08,01,05,25,9.60
2011,08,01,05,26,9.60
2011,08,01,05,27,9.60
2011,08,01,05,28,9.60
2011,08,01,05,29,9.60
2011,08,01,05,30,9.50
2011,08,01,05,31,9.50
2011,08,01,05,32,9.40
2011,08,01,05,33,9.40
2011,08,01,05,34,9.30
2011,08,01,05,35,9.30
2011,08,01,05,36,9.20
2011,08,01,05,37,9.20
2011,08,01,05,38,9.10
2011,08,01,05,39,9.10
2011,08,01,05,40,9.00
2011,08,01,05,41,9.00
2011,08,01,05,42,9.00
2011,08,01,05,43,9.00
2011,08,01,05,44,8.90
2011,08,01,05,45,8.90
2011,08,01,05,46,8.90
2011,08,01,05,47,8.90
2011,08,01,05,48,8.90
2011,08,01,05,49,9.00
2011,08,01,05,50,8.90
2011,08,01,05,51,8.90
2011,08,01,05,52,8.90
2011,08,01,05,53,8.90
2011,08,01,05,54,8.90
2011,08,01,05,55,8.90
2011,08,01,05,56,8.90
2011,08,01,05,57,8.90
2011,08,01,05,58,8.90
2011,08,01,05,59,8.90
2011,08,01,06,00,8.90
2011,08,01,06,01,8.90
2011,08,01,06,02,8.90
2011,08,01,06,03,8.90
2011,08,01,06,04,8.80
2011,08,01,06,05,8.80
2011,08,01,06,06,8.80
2011,08,01,06,07,8.80
2011,08,01,06,08,8.80
2011,08,01,06,09,8.80
2011,08,01,06,10,8.80
2011,08,01,06,11,8.80
2011,08,01,06,12,8.80
2011,08,01,06,13,8.80
2011,08,01,06,14,8.80
2011,08,01,06,15,8.80
2011,08,01,06,16,8.80
2011,08,01,06,17,8.80
2011,08,01,06,18,8.80
2011,08,01,06,19,8.90
2011,08,01,06,20,8.90
2011,08,01,06,21,8.90
2011,08,01,06,22,8.90
2011,08,01,06,23,9.00
2011,08,01,06,24,9.00
2011,08,01,06,25,9.10
2011,08,01,06,26,9.10
2011,08,01,06,27,9.10
2011,08,01,06,28,9.20
2011,08,01,06,29,9.20
2011,08,01,06,30,9.20
2011,08,01,06,31,9.20
2011,08,01,06,32,9.30
2011,08,01,06,33,9.30
2011,08,01,06,34,9.40
2011,08,01,06,35,9.40
2011,08,01,06,36,9.50
2011,08,01,06,37,9.50
2011,08,01,06,38,9.50
2011,08,01,06,39,9.50
2011,08,01,06,40,9.50
2011,08,01,06,41,9.50
2011,08,01,06,42,9.50
2011,08,01,06,43,9.50
2011,08,01,06,44,9.50
2011,08,01,06,45,9.60
2011,08,01,06,46,9.60
2011,08,01,06,47,9.60
2011,08,01,06,48,9.60
2011,08,01,06,49,9.60
2011,08,01,06,50,9.60
2011,08,01,06,51,9.60
2011,08,01,06,52,9.60
2011,08,01,06,53,9.60
2011,08,01,06,54,9.60
2011,08,01,06,55,9.60
2011,08,01,06,56,9.60
2011,08,01,06,57,9.60
2011,08,01,06,58,9.70
2011,08,01,06,59,9.70
2011,08,01,07,00,9.70
2011,08,01,07,01,9.70
2011,08,01,07,02,9.70
2011,08,01,07,03,9.80
2011,08,01,07,04,9.80
2011,08,01,07,05,9.90
2011,08,01,07,06,9.90
2011,08,01,07,07,10.00
2011,08,01,07,08,10.10
2011,08,01,07,09,10.10
2011,08,01,07,10,10.20
2011,08,01,07,11,10.20
2011,08,01,07,12,10.30
2011,08,01,07,13,10.30
2011,08,01,07,14,10.40
2011,08,01,07,15,10.50
2011,08,01,07,16,10.50
2011,08,01,07,17,10.60
2011,08,01,07,18,10.60
2011,08,01,07,19,10.70
2011,08,01,07,20,10.80
2011,08,01,07,21,10.80
2011,08,01,07,22,10.80
2011,08,01,07,23,10.90
2011,08,01,07,24,11.00
2011,08,01,07,25,11.20
2011,08,01,07,26,11.30
2011,08,01,07,27,11.40
2011,08,01,07,28,11.50
2011,08,01,07,29,11.60
2011,08,01,07,30,11.70
2011,08,01,07,31,11.70
2011,08,01,07,32,11.80
2011,08,01,07,33,11.90
2011,08,01,07,34,12.10
2011,08,01,07,35,12.20
2011,08,01,07,36,12.20
2011,08,01,07,37,12.30
2011,08,01,07,38,12.40
2011,08,01,07,39,12.50
2011,08,01,07,40,12.60
2011,08,01,07,41,12.60
2011,08,01,07,42,12.70
2011,08,01,07,43,12.80
2011,08,01,07,44,12.90
2011,08,01,07,45,12.90
2011,08,01,07,46,13.00
2011,08,01,07,47,13.10
2011,08,01,07,48,13.20
2011,08,01,07,49,13.30
2011,08,01,07,50,13.30
2011,08,01,07,51,13.40
2011,08,01,07,52,13.50
2011,08,01,07,53,13.60
2011,08,01,07,54,13.60
2011,08,01,07,55,13.70
2011,08,01,07,56,13.80
2011,08,01,07,57,13.90
2011,08,01,07,58,14.00
2011,08,01,07,59,14.10
2011,08,01,08,00,14.20
2011,08,01,08,01,14.30
2011,08,01,08,02,14.40
2011,08,01,08,03,14.50
2011,08,01,08,04,14.70
2011,08,01,08,05,14.80
2011,08,01,08,06,14.90
2011,08,01,08,07,15.00
2011,08,01,08,08,15.00
2011,08,01,08,09,15.00
2011,08,01,08,10,15.10
2011,08,01,08,11,15.20
2011,08,01,08,12,15.40
2011,08,01,08,13,15.50
2011,08,01,08,14,15.70
2011,08,01,08,15,15.80
2011,08,01,08,16,15.90
2011,08,01,08,17,16.00
2011,08,01,08,18,16.10
2011,08,01,08,19,16.10
2011,08,01,08,20,16.20
2011,08,01,08,21,16.20
2011,08,01,08,22,16.30
2011,08,01,08,23,16.30
2011,08,01,08,24,16.30
2011,08,01,08,25,16.40
2011,08,01,08,26,16.40
2011,08,01,08,27,16.50
2011,08,01,08,28,16.50
2011,08,01,08,29,16.60
2011,08,01,08,30,16.60
2011,08,01,08,31,16.70
2011,08,01,08,32,16.70
2011,08,01,08,33,16.70
2011,08,01,08,34,16.70
2011,08,01,08,35,16.70
2011,08,01,08,36,16.70
2011,08,01,08,37,16.70
2011,08,01,08,38,16.60
2011,08,01,08,39,16.50
2011,08,01,08,40,16.50
2011,08,01,08,41,16.50
2011,08,01,08,42,16.40
2011,08,01,08,43,16.40
2011,08,01,08,44,16.50
2011,08,01,08,45,16.50
2011,08,01,08,46,16.60
2011,08,01,08,47,16.70
2011,08,01,08,48,16.70
2011,08,01,08,49,16.70
2011,08,01,08,50,16.70
2011,08,01,08,51,16.80
2011,08,01,08,52,16.80
2011,08,01,08,53,16.80
2011,08,01,08,54,16.80
2011,08,01,08,55,16.90
2011,08,01,08,56,17.00
2011,08,01,08,57,17.00
2011,08,01,08,58,17.10
2011,08,01,08,59,17.10
2011,08,01,09,00,17.10
2011,08,01,09,01,17.10
2011,08,01,09,02,17.10
2011,08,01,09,03,17.10
2011,08,01,09,04,17.10
2011,08,01,09,05,17.10
2011,08,01,09,06,17.10
2011,08,01,09,07,17.10
2011,08,01,09,08,17.20
2011,08,01,09,09,17.20
2011,08,01,09,10,17.20
2011,08,01,09,11,17.20
2011,08,01,09,12,17.20
2011,08,01,09,13,17.20
2011,08,01,09,14,17.20
2011,08,01,09,15,17.30
2011,08,01,09,16,17.30
2011,08,01,09,17,17.30
2011,08,01,09,18,17.40
2011,08,01,09,19,17.40
2011,08,01,09,20,17.40
2011,08,01,09,21,17.40
2011,08,01,09,22,17.40
2011,08,01,09,23,17.40
2011,08,01,09,24,17.50
2011,08,01,09,25,17.50
2011,08,01,09,26,17.60
2011,08,01,09,27,17.60
2011,08,01,09,28,17.60
2011,08,01,09,29,17.60
2011,08,01,09,30,17.70
2011,08,01,09,31,17.70
2011,08,01,09,32,17.70
2011,08,01,09,33,17.80
2011,08,01,09,34,17.80
2011,08,01,09,35,17.80
2011,08,01,09,36,17.80
2011,08,01,09,37,17.80
2011,08,01,09,38,17.80
2011,08,01,09,39,17.90
2011,08,01,09,40,17.90
2011,08,01,09,41,17.90
2011,08,01,09,42,17.90
2011,08,01,09,43,18.00
2011,08,01,09,44,18.00
2011,08,01,09,45,18.00
2011,08,01,09,46,18.00
2011,08,01,09,47,18.10
2011,08,01,09,48,18.00
2011,08,01,09,49,18.00
2011,08,01,09,50,18.00
2011,08,01,09,51,18.00
2011,08,01,09,52,18.00
2011,08,01,09,53,18.00
2011,08,01,09,54,18.00
2011,08,01,09,55,18.10
2011,08,01,09,56,18.10
2011,08,01,09,57,18.20
2011,08,01,09,58,18.30
2011,08,01,09,59,18.20
2011,08,01,10,00,18.20
2011,08,01,10,01,18.10
2011,08,01,10,02,18.10
2011,08,01,10,03,18.10
2011,08,01,10,04,18.20
2011,08,01,10,05,18.30
2011,08,01,10,06,18.30
2011,08,01,10,07,18.40
2011,08,01,10,08,18.30
2011,08,01,10,09,18.20
2011,08,01,10,10,18.20
2011,08,01,10,11,18.20
2011,08,01,10,12,18.20
2011,08,01,10,13,18.10
2011,08,01,10,14,18.10
2011,08,01,10,15,18.10
2011,08,01,10,16,18.10
2011,08,01,10,17,18.20
2011,08,01,10,18,18.10
2011,08,01,10,19,18.20
2011,08,01,10,20,18.30
2011,08,01,10,21,18.30
2011,08,01,10,22,18.30
2011,08,01,10,23,18.40
2011,08,01,10,24,18.40
2011,08,01,10,25,18.40
2011,08,01,10,26,18.50
2011,08,01,10,27,18.60
2011,08,01,10,28,18.70
2011,08,01,10,29,18.70
2011,08,01,10,30,18.70
2011,08,01,10,31,18.70
2011,08,01,10,32,18.60
2011,08,01,10,33,18.60
2011,08,01,10,34,18.60
2011,08,01,10,35,18.60
2011,08,01,10,36,18.60
2011,08,01,10,37,18.50
2011,08,01,10,38,18.50
2011,08,01,10,39,18.40
2011,08,01,10,40,18.40
2011,08,01,10,41,18.40
2011,08,01,10,42,18.50
2011,08,01,10,43,18.50
2011,08,01,10,44,18.50
2011,08,01,10,45,18.50
2011,08,01,10,46,18.50
2011,08,01,10,47,18.50
2011,08,01,10,48,18.60
2011,08,01,10,49,18.70
2011,08,01,10,50,18.70
2011,08,01,10,51,18.70
2011,08,01,10,52,18.70
2011,08,01,10,53,18.60
2011,08,01,10,54,18.50
2011,08,01,10,55,18.40
2011,08,01,10,56,18.40
2011,08,01,10,57,18.30
2011,08,01,10,58,18.20
2011,08,01,10,59,18.20
2011,08,01,11,00,18.20
2011,08,01,11,01,18.20
2011,08,01,11,02,18.20
2011,08,01,11,03,18.10
2011,08,01,11,04,18.10
2011,08,01,11,05,18.10
2011,08,01,11,06,18.10
2011,08,01,11,07,18.10
2011,08,01,11,08,18.10
2011,08,01,11,09,18.20
2011,08,01,11,10,18.20
2011,08,01,11,11,18.20
2011,08,01,11,12,18.20
2011,08,01,11,13,18.20
2011,08,01,11,14,18.20
2011,08,01,11,15,18.20
2011,08,01,11,16,18.20
2011,08,01,11,17,18.20
2011,08,01,11,18,18.20
2011,08,01,11,19,18.20
2011,08,01,11,20,18.20
2011,08,01,11,21,18.20
2011,08,01,11,22,18.20
2011,08,01,11,23,18.20
2011,08,01,11,24,18.30
2011,08,01,11,25,18.30
2011,08,01,11,26,18.30
2011,08,01,11,27,18.30
2011,08,01,11,28,18.40
2011,08,01,11,29,18.40
2011,08,01,11,30,18.40
2011,08,01,11,31,18.60
2011,08,01,11,32,18.60
2011,08,01,11,33,18.70
2011,08,01,11,34,18.80
2011,08,01,11,35,18.90
2011,08,01,11,36,18.90
2011,08,01,11,37,18.90
2011,08,01,11,38,18.90
2011,08,01,11,39,18.90
2011,08,01,11,40,18.90
2011,08,01,11,41,18.90
2011,08,01,11,42,18.90
2011,08,01,11,43,18.90
2011,08,01,11,44,18.90
2011,08,01,11,45,18.90
2011,08,01,11,46,19.00
2011,08,01,11,47,19.10
2011,08,01,11,48,19.10
2011,08,01,11,49,19.30
2011,08,01,11,50,19.30
2011,08,01,11,51,19.30
2011,08,01,11,52,19.20
2011,08,01,11,53,19.20
2011,08,01,11,54,19.20
2011,08,01,11,55,19.20
2011,08,01,11,56,19.10
2011,08,01,11,57,19.20
2011,08,01,11,58,19.20
2011,08,01,11,59,19.20
2011,08,01,12,00,19.20
2011,08,01,12,01,19.10
2011,08,01,12,02,19.10
2011,08,01,12,03,19.10
2011,08,01,12,04,19.10
2011,08,01,12,05,19.10
2011,08,01,12,06,19.20
2011,08,01,12,07,19.20
2011,08,01,12,08,19.30
2011,08,01,12,09,19.30
2011,08,01,12,10,19.30
2011,08,01,12,11,19.30
2011,08,01,12,12,19.40
2011,08,01,12,13,19.50
2011,08,01,12,14,19.70
2011,08,01,12,15,19.70
2011,08,01,12,16,19.70
2011,08,01,12,17,19.70
2011,08,01,12,18,19.60
2011,08,01,12,19,19.50
2011,08,01,12,20,19.50
2011,08,01,12,21,19.50
2011,08,01,12,22,19.60
2011,08,01,12,23,19.70
2011,08,01,12,24,19.70
2011,08,01,12,25,19.80
2011,08,01,12,26,19.80
2011,08,01,12,27,19.70
2011,08,01,12,28,19.70
2011,08,01,12,29,19.70
2011,08,01,12,30,19.70
2011,08,01,12,31,19.80
2011,08,01,12,32,19.90
2011,08,01,12,33,19.90
2011,08,01,12,34,19.70
2011,08,01,12,35,19.70
2011,08,01,12,36,19.60
2011,08,01,12,37,19.60
2011,08,01,12,38,19.50
2011,08,01,12,39,19.50
2011,08,01,12,40,19.50
2011,08,01,12,41,19.50
2011,08,01,12,42,19.60
2011,08,01,12,43,19.70
2011,08,01,12,44,19.80
2011,08,01,12,45,19.90
2011,08,01,12,46,19.90
2011,08,01,12,47,20.00
2011,08,01,12,48,20.10
2011,08,01,12,49,20.00
2011,08,01,12,50,20.00
2011,08,01,12,51,20.10
2011,08,01,12,52,20.10
2011,08,01,12,53,20.00
2011,08,01,12,54,20.00
2011,08,01,12,55,20.00
2011,08,01,12,56,20.00
2011,08,01,12,57,20.00
2011,08,01,12,58,20.00
2011,08,01,12,59,20.00
2011,08,01,13,00,20.20
2011,08,01,13,01,20.30
2011,08,01,13,02,20.50
2011,08,01,13,03,20.60
2011,08,01,13,04,20.60
2011,08,01,13,05,20.60
2011,08,01,13,06,20.60
2011,08,01,13,07,20.50
2011,08,01,13,08,20.50
2011,08,01,13,09,20.50
2011,08,01,13,10,20.40
2011,08,01,13,11,20.40
2011,08,01,13,12,20.30
2011,08,01,13,13,20.30
2011,08,01,13,14,20.30
2011,08,01,13,15,20.30
2011,08,01,13,16,20.30
2011,08,01,13,17,20.30
2011,08,01,13,18,20.30
2011,08,01,13,19,20.40
2011,08,01,13,20,20.40
2011,08,01,13,21,20.30
2011,08,01,13,22,20.30
2011,08,01,13,23,20.30
2011,08,01,13,24,20.40
2011,08,01,13,25,20.40
2011,08,01,13,26,20.50
2011,08,01,13,27,20.70
2011,08,01,13,28,20.70
2011,08,01,13,29,20.80
2011,08,01,13,30,20.80
2011,08,01,13,31,20.70
2011,08,01,13,32,20.80
2011,08,01,13,33,20.80
2011,08,01,13,34,20.80
2011,08,01,13,35,20.90
2011,08,01,13,36,21.00
2011,08,01,13,37,21.10
2011,08,01,13,38,21.20
2011,08,01,13,39,21.20
2011,08,01,13,40,21.20
2011,08,01,13,41,21.20
2011,08,01,13,42,21.10
2011,08,01,13,43,21.10
2011,08,01,13,44,21.10
2011,08,01,13,45,21.10
2011,08,01,13,46,21.00
2011,08,01,13,47,21.00
2011,08,01,13,48,21.10
2011,08,01,13,49,21.20
2011,08,01,13,50,21.30
2011,08,01,13,51,21.50
2011,08,01,13,52,21.70
2011,08,01,13,53,21.70
2011,08,01,13,54,21.70
2011,08,01,13,55,21.70
2011,08,01,13,56,21.60
2011,08,01,13,57,21.60
2011,08,01,13,58,21.60
2011,08,01,13,59,21.70
2011,08,01,14,00,21.80
2011,08,01,14,01,21.90
2011,08,01,14,02,22.00
2011,08,01,14,03,22.10
2011,08,01,14,04,22.10
2011,08,01,14,05,22.20
2011,08,01,14,06,22.20
2011,08,01,14,07,22.10
2011,08,01,14,08,21.90
2011,08,01,14,09,21.80
2011,08,01,14,10,21.80
2011,08,01,14,11,21.90
2011,08,01,14,12,22.00
2011,08,01,14,13,22.00
2011,08,01,14,14,21.90
2011,08,01,14,15,21.80
2011,08,01,14,16,21.90
2011,08,01,14,17,22.00
2011,08,01,14,18,22.10
2011,08,01,14,19,22.10
2011,08,01,14,20,22.10
2011,08,01,14,21,22.00
2011,08,01,14,22,21.90
2011,08,01,14,23,21.90
2011,08,01,14,24,21.90
2011,08,01,14,25,21.90
2011,08,01,14,26,22.00
2011,08,01,14,27,22.00
2011,08,01,14,28,22.20
2011,08,01,14,29,22.30
2011,08,01,14,30,22.40
2011,08,01,14,31,22.40
2011,08,01,14,32,22.50
2011,08,01,14,33,22.70
2011,08,01,14,34,22.70
2011,08,01,14,35,22.60
2011,08,01,14,36,22.50
2011,08,01,14,37,22.50
2011,08,01,14,38,22.30
2011,08,01,14,39,22.20
2011,08,01,14,40,22.10
2011,08,01,14,41,22.10
2011,08,01,14,42,22.00
2011,08,01,14,43,22.00
2011,08,01,14,44,22.00
2011,08,01,14,45,22.00
2011,08,01,14,46,22.00
2011,08,01,14,47,22.00
2011,08,01,14,48,22.00
2011,08,01,14,49,22.10
2011,08,01,14,50,22.10
2011,08,01,14,51,22.10
2011,08,01,14,52,22.10
2011,08,01,14,53,22.20
2011,08,01,14,54,22.30
2011,08,01,14,55,22.40
2011,08,01,14,56,22.40
2011,08,01,14,57,22.40
2011,08,01,14,58,22.40
2011,08,01,14,59,22.40
2011,08,01,15,00,22.40
2011,08,01,15,01,22.40
2011,08,01,15,02,22.40
2011,08,01,15,03,22.50
2011,08,01,15,04,22.70
2011,08,01,15,05,22.80
2011,08,01,15,06,22.90
2011,08,01,15,07,23.00
2011,08,01,15,08,23.10
2011,08,01,15,09,23.10
2011,08,01,15,10,23.10
2011,08,01,15,11,23.10
2011,08,01,15,12,23.00
2011,08,01,15,13,23.00
2011,08,01,15,14,23.00
2011,08,01,15,15,22.90
2011,08,01,15,16,22.90
2011,08,01,15,17,22.90
2011,08,01,15,18,22.90
2011,08,01,15,19,22.90
2011,08,01,15,20,22.90
2011,08,01,15,21,22.90
2011,08,01,15,22,23.00
2011,08,01,15,23,23.00
2011,08,01,15,24,23.10
2011,08,01,15,25,23.20
2011,08,01,15,26,23.30
2011,08,01,15,27,23.30
2011,08,01,15,28,23.30
2011,08,01,15,29,23.30
2011,08,01,15,30,23.20
2011,08,01,15,31,23.20
2011,08,01,15,32,23.20
2011,08,01,15,33,23.10
2011,08,01,15,34,23.00
2011,08,01,15,35,23.00
2011,08,01,15,36,23.00
2011,08,01,15,37,23.10
2011,08,01,15,38,23.20
2011,08,01,15,39,23.30
2011,08,01,15,40,23.30
2011,08,01,15,41,23.40
2011,08,01,15,42,23.40
2011,08,01,15,43,23.40
2011,08,01,15,44,23.30
2011,08,01,15,45,23.30
2011,08,01,15,46,23.30
2011,08,01,15,47,23.40
2011,08,01,15,48,23.50
2011,08,01,15,49,23.70
2011,08,01,15,50,23.80
2011,08,01,15,51,23.80
2011,08,01,15,52,23.80
2011,08,01,15,53,23.80
2011,08,01,15,54,23.60
2011,08,01,15,55,23.50
2011,08,01,15,56,23.40
2011,08,01,15,57,23.50
2011,08,01,15,58,23.60
2011,08,01,15,59,23.60
2011,08,01,16,00,23.50
2011,08,01,16,01,23.40
2011,08,01,16,02,23.30
2011,08,01,16,03,23.30
2011,08,01,16,04,23.30
2011,08,01,16,05,23.30
2011,08,01,16,06,23.30
2011,08,01,16,07,23.30
2011,08,01,16,08,23.30
2011,08,01,16,09,23.30
2011,08,01,16,10,23.20
2011,08,01,16,11,23.00
2011,08,01,16,12,22.80
2011,08,01,16,13,22.70
2011,08,01,16,14,22.50
2011,08,01,16,15,22.40
2011,08,01,16,16,22.50
2011,08,01,16,17,22.60
2011,08,01,16,18,22.70
2011,08,01,16,19,22.70
2011,08,01,16,20,22.70
2011,08,01,16,21,22.60
2011,08,01,16,22,22.70
2011,08,01,16,23,22.70
2011,08,01,16,24,22.70
2011,08,01,16,25,22.70
2011,08,01,16,26,22.60
2011,08,01,16,27,22.50
2011,08,01,16,28,22.50
2011,08,01,16,29,22.50
2011,08,01,16,30,22.40
2011,08,01,16,31,22.40
2011,08,01,16,32,22.40
2011,08,01,16,33,22.50
2011,08,01,16,34,22.60
2011,08,01,16,35,22.50
2011,08,01,16,36,22.40
2011,08,01,16,37,22.40
2011,08,01,16,38,22.60
2011,08,01,16,39,22.60
2011,08,01,16,40,22.60
2011,08,01,16,41,22.80
2011,08,01,16,42,22.80
2011,08,01,16,43,22.80
2011,08,01,16,44,22.90
2011,08,01,16,45,23.00
2011,08,01,16,46,23.20
2011,08,01,16,47,23.30
2011,08,01,16,48,23.30
2011,08,01,16,49,23.30
2011,08,01,16,50,23.20
2011,08,01,16,51,23.10
2011,08,01,16,52,23.20
2011,08,01,16,53,23.20
2011,08,01,16,54,23.30
2011,08,01,16,55,23.40
2011,08,01,16,56,23.40
2011,08,01,16,57,23.30
2011,08,01,16,58,23.10
2011,08,01,16,59,23.00
2011,08,01,17,00,23.00
2011,08,01,17,01,23.10
2011,08,01,17,02,23.00
2011,08,01,17,03,22.90
2011,08,01,17,04,22.80
2011,08,01,17,05,22.70
2011,08,01,17,06,22.50
2011,08,01,17,07,22.40
2011,08,01,17,08,22.30
2011,08,01,17,09,22.20
2011,08,01,17,10,22.00
2011,08,01,17,11,21.90
2011,08,01,17,12,21.80
2011,08,01,17,13,21.90
2011,08,01,17,14,21.90
2011,08,01,17,15,21.80
2011,08,01,17,16,21.80
2011,08,01,17,17,21.80
2011,08,01,17,18,21.80
2011,08,01,17,19,21.90
2011,08,01,17,20,21.90
2011,08,01,17,21,21.90
2011,08,01,17,22,21.90
2011,08,01,17,23,22.00
2011,08,01,17,24,22.10
2011,08,01,17,25,22.00
2011,08,01,17,26,22.00
2011,08,01,17,27,21.90